Location: Wangen+im+Allg�u
(47.7098°N, 9.8383°E)
Time: 10:05:47
(UTC+01:00)

ISS - Pass Details

Date: 11 January 2018
Orbit: 402 x 407 km, 51.6° (Epoch: 21 January)

Event Time Altitude Azimuth Distance (km) Brightness Sun altitude
Exits shadow 05:41:03 37° 72° (ENE) 649 -2.4 -23.8°
Drops below altitude 10° 05:43:18 10° 95° (E) 1,466 0.1 -23.4°
Sets 05:45:25 0° 100° (E) 2,326 1.5 -23.1°
